Location: Unspecified
(44.0704°N, 88.6889°W)
Time: 23:40:59
(UTC+02:00)

Altair - Pass Details

Date: 21 June 2019
Orbit: 1501 x 1682 km, 47.2° (Epoch: 21 October)

Event Time Altitude Azimuth Distance (km) Brightness Sun altitude
Rises 07:17:07 0° 277° (W) 4,785 10.3 -21.9°
Reaches altitude 10° 07:20:11 10° 280° (W) 3,824 9.8 -22.0°
Maximum altitude 07:30:01 75° 6° (N) 1,696 7.8 -22.2°
Drops below altitude 10° 07:40:11 10° 92° (E) 3,936 9.6 -22.4°
Sets 07:43:23 0° 94° (E) 4,931 10.1 -22.4°
